Zurück zum Katalog

STARLINK-32088

AktivKommunikationVLEO
NORAD 59693·PAYLOAD·🇺🇸 United States

Gestartet May 8, 2024 von Cape Canaveral Space Force Station

Loading…

Nächste Überflüge (nächste 24 Stunden)

TLE

AktuellSource: CelesTrak SupGP

Epoche: Sep 14, 2026, 22:02 UTC

1 59693C 24086M   26257.91854167  .00067788  00000+0  24552-2 0  2577
2 59693  43.0004  63.6824 0001438 275.1537 296.5887 15.27545376    11

Verfolge STARLINK-32088 in Echtzeit mit AllMySat

Download on the App Store